IGO967 VABB-VOML

Flight info

Callsign IGO967
Flight time N/A
Altitude 35000
Route IKATI W17 MML
Aircraft B738/M-SDE2E3FGHIRWXY/LB1

Departure

Time 2026-05-04 17:06
Airport Chhatrapati Shivaji Maharaj International Airport (VABB)

Arrival

Time N/A
Airport Mangaluru International Airport (VOML)
Time Latitude Longitude Altitude Speed Heading
2026-05-04 16:11 19.09496 72.87352 42 ft 0 kts 303°
2026-05-04 16:39 19.09327 72.87210 36 ft 0 kts 342°
2026-05-04 16:40 19.09269 72.87509 34 ft 0 kts 220°
2026-05-04 16:53 19.09291 72.87529 35 ft 3 kts 220°
2026-05-04 16:54 19.09310 72.87545 35 ft 3 kts 220°
2026-05-04 16:55 19.09357 72.87586 36 ft 0 kts 219°
2026-05-04 16:57 19.09353 72.87583 36 ft 3 kts 219°
2026-05-04 16:57 19.09310 72.87611 35 ft 9 kts 129°
2026-05-04 16:58 19.09147 72.87702 32 ft 6 kts 116°
2026-05-04 16:58 19.09139 72.87732 33 ft 3 kts 96°
2026-05-04 16:59 19.09137 72.87770 34 ft 4 kts 96°
2026-05-04 17:00 19.09060 72.87894 36 ft 9 kts 90°
2026-05-04 17:00 19.09060 72.87994 39 ft 0 kts 91°
2026-05-04 17:01 19.09060 72.88004 39 ft 2 kts 90°
2026-05-04 17:01 19.09053 72.88035 39 ft 0 kts 128°
2026-05-04 17:02 19.09034 72.88047 40 ft 4 kts 162°
2026-05-04 17:03 19.09010 72.88051 40 ft 3 kts 175°
2026-05-04 17:03 19.09001 72.88052 40 ft 0 kts 176°
2026-05-04 17:03 19.08993 72.88052 39 ft 0 kts 181°
2026-05-04 17:04 19.08962 72.88052 39 ft 7 kts 181°
2026-05-04 17:04 19.08891 72.88014 37 ft 5 kts 258°
2026-05-04 17:05 19.08885 72.87886 34 ft 31 kts 269°
2026-05-04 17:06 19.08196 72.83681 2134 ft 162 kts 230°
2026-05-04 17:07 19.06167 72.82295 3645 ft 160 kts 190°
2026-05-04 17:07 19.04997 72.82247 4340 ft 160 kts 172°
2026-05-04 17:07 19.04230 72.82470 4766 ft 162 kts 149°
2026-05-04 17:08 19.03635 72.82999 5190 ft 162 kts 137°
2026-05-04 17:08 19.02211 72.83545 6041 ft 160 kts 173°
2026-05-04 17:09 18.99855 72.84317 7344 ft 159 kts 158°
2026-05-04 17:09 18.99044 72.84654 7748 ft 161 kts 158°
2026-05-04 17:10 18.97465 72.85321 8558 ft 162 kts 157°
2026-05-04 17:10 18.95374 72.86208 9598 ft 161 kts 157°
2026-05-04 17:11 18.93622 72.86951 10357 ft 165 kts 157°
2026-05-04 17:11 18.92145 72.87577 10901 ft 175 kts 157°
2026-05-04 17:12 18.91157 72.87997 10976 ft 196 kts 157°
2026-05-04 17:12 18.89120 72.88863 11250 ft 227 kts 157°
2026-05-04 17:13 18.85780 72.90280 11422 ft 270 kts 157°
2026-05-04 17:14 18.80977 72.92316 12848 ft 294 kts 157°
2026-05-04 17:15 18.76248 72.94322 13958 ft 327 kts 157°
2026-05-04 17:16 18.70540 72.96744 16034 ft 333 kts 157°
2026-05-04 17:16 18.69233 72.97298 16486 ft 335 kts 157°
2026-05-04 17:17 18.67650 72.97971 16763 ft 344 kts 157°
2026-05-04 17:18 18.60812 73.00871 19138 ft 343 kts 157°
2026-05-04 17:19 18.52291 73.04486 21186 ft 360 kts 157°
2026-05-04 17:19 18.48738 73.05993 22034 ft 364 kts 157°
2026-05-04 17:20 18.45426 73.07398 22806 ft 367 kts 157°
2026-05-04 17:20 18.42630 73.08585 23404 ft 371 kts 157°
2026-05-04 17:20 18.40743 73.09385 23806 ft 373 kts 157°
2026-05-04 17:21 18.37384 73.10810 24482 ft 376 kts 157°
2026-05-04 17:21 18.36021 73.11388 24749 ft 377 kts 157°
2026-05-04 17:22 18.34434 73.12062 25053 ft 379 kts 157°
2026-05-04 17:23 18.31478 73.13316 25599 ft 382 kts 157°
2026-05-04 17:23 18.29451 73.14177 25965 ft 384 kts 157°
2026-05-04 17:23 18.26574 73.15398 26460 ft 387 kts 157°
2026-05-04 17:24 18.25850 73.15705 26584 ft 387 kts 157°
2026-05-04 17:25 18.22547 73.17107 27127 ft 390 kts 156°
2026-05-04 17:25 18.18730 73.18726 27731 ft 393 kts 156°
2026-05-04 17:26 18.10637 73.22162 28913 ft 399 kts 156°
2026-05-04 17:27 18.07222 73.23611 29377 ft 402 kts 156°
2026-05-04 17:27 18.03264 73.25292 29891 ft 405 kts 156°
2026-05-04 17:29 17.94112 73.29179 30992 ft 411 kts 156°
2026-05-04 17:29 17.88216 73.31683 31647 ft 414 kts 156°
2026-05-04 17:30 17.82485 73.34117 32250 ft 418 kts 156°
2026-05-04 17:31 17.77939 73.36048 32703 ft 421 kts 156°
2026-05-04 17:31 17.72638 73.38300 33205 ft 423 kts 156°
2026-05-04 17:32 17.70129 73.39366 33432 ft 425 kts 156°
2026-05-04 17:33 17.65383 73.41383 33847 ft 427 kts 156°
2026-05-04 17:33 17.63359 73.42243 34017 ft 428 kts 156°
2026-05-04 17:34 17.56481 73.45166 34589 ft 431 kts 156°
2026-05-04 17:34 17.54516 73.46001 34769 ft 431 kts 156°
2026-05-04 17:35 17.44695 73.50176 34857 ft 427 kts 156°
2026-05-04 17:36 17.40313 73.52040 34858 ft 427 kts 156°
2026-05-04 17:37 17.31521 73.55780 34858 ft 428 kts 156°
2026-05-04 17:37 17.28024 73.57267 34858 ft 428 kts 156°
2026-05-04 17:38 17.24896 73.58598 34858 ft 428 kts 156°
2026-05-04 17:39 17.15994 73.62385 34858 ft 428 kts 156°
2026-05-04 17:40 17.08264 73.65674 34858 ft 429 kts 157°
2026-05-04 17:40 17.04152 73.67423 34858 ft 433 kts 157°
2026-05-04 17:41 16.98798 73.69701 34858 ft 436 kts 157°
2026-05-04 17:42 16.89555 73.73635 34857 ft 438 kts 157°
2026-05-04 17:42 16.86103 73.75105 34857 ft 437 kts 157°
2026-05-04 17:43 16.84769 73.75673 34857 ft 437 kts 157°
2026-05-04 17:43 16.80674 73.77415 34858 ft 437 kts 157°
2026-05-04 17:44 16.73309 73.80552 34858 ft 437 kts 157°
2026-05-04 17:45 16.64927 73.84121 34858 ft 437 kts 157°
2026-05-04 17:46 16.61244 73.85689 34858 ft 437 kts 157°
2026-05-04 17:46 16.57224 73.87401 34858 ft 437 kts 157°
2026-05-04 17:47 16.48203 73.91243 34858 ft 437 kts 157°
2026-05-04 17:49 16.35240 73.96765 34858 ft 437 kts 157°
2026-05-04 17:50 16.29555 73.99689 34860 ft 435 kts 143°
2026-05-04 17:50 16.27972 74.00930 34863 ft 436 kts 142°
2026-05-04 17:50 16.24897 74.03117 34858 ft 436 kts 148°
2026-05-04 17:51 16.21034 74.05348 34858 ft 437 kts 152°
2026-05-04 17:51 16.19435 74.06174 34857 ft 437 kts 153°